Regional Weather Roundup
Issued by NWS

Home | Current Version | Previous Version | Text Only | Print | Product List | Glossary Off
Versions: 1 2 3 4 5 6 7 8 9 10 11 12 13 14 15 16 17 18 19 20 21 22 23 24 25 26 27 28 29 30 31 32 33 34 35 36 37 38 39 40 41 42 43 44 45 46 47 48 49 50

000
ASUS45 KBOU 310210
RWRCO

WEATHER ROUNDUP FOR COLORADO
NATIONAL WEATHER SERVICE PUEBLO CO
800 PM MDT THU JUL 30 2015

NOTE: "FAIR" INDICATES FEW OR NO CLOUDS BELOW 12000 FEET WITH NO
SIGNIFICANT WEATHER AND/OR OBSTRUCTIONS TO VISIBILITY.

COZ001>005-013-030-031-310300-
...NORTHWEST COLORADO...

CITY           SKY/WX    TMP DP  RH WIND       PRES   REMARKS
CRAIG          CLEAR     81  30  15 N7        30.30R
HAYDEN         CLEAR     81  19  10 CALM      30.33S
MEEKER         CLEAR     77  27  15 N6        30.31R
MOUNT WERNER   NOT AVBL
STEAMBOAT SPGS FAIR      76  35  22 CALM      30.36S
WALDEN         FAIR      70  23  17 NE8       30.47R
$$

COZ006>008-011-310300-
...WEST CENTRAL VALLEYS...

CITY           SKY/WX    TMP DP  RH WIND       PRES   REMARKS
GRAND JUNCTION CLEAR     86  29  12 W3        30.15S
MONTROSE       CLEAR     85  36  17 NW6       30.25R
EAGLE          CLEAR     82  27  13 N12G20    30.31R
RIFLE          CLEAR     87  30  13 NW7       30.21R
DELTA          NOT AVBL
NUCLA          FAIR      86  28  12 N6        30.29R
$$

COZ017>023-064>068-310300-
...SOUTHWEST COLORADO...

CITY           SKY/WX    TMP DP  RH WIND       PRES   REMARKS
DURANGO        CLOUDY    63  55  75 NW8       30.36F
CORTEZ         MOCLDY    72  49  44 SE8       30.31R
PAGOSA SPRINGS MOCLDY    71  44  37 CALM      30.46R
TELLURIDE      MOCLDY    70  25  18 CALM      30.54R
WOLF CREEK PAS NOT AVBL
$$

COZ009-010-012-014-032>034-037-058>063-310300-
...CENTRAL COLORADO...

CITY           SKY/WX    TMP DP  RH WIND       PRES   REMARKS
ASPEN          CLEAR     65  39  38 SW6       30.40S
BUENA VISTA    CLOUDY    70  48  45 SE8       30.47R
COPPER MTN     MOCLDY    63  32  31 E5        30.78S
BERTHOUD PASS  FAIR      46  36  66 MISG      30.85R
COTTONWOOD PAS CLOUDY    68  41  37 SE20G25   30.60R THUNDER
GUNNISON       PTCLDY    77  36  22 N8        30.41R
KREMMLING      CLEAR     77  18  10 NW8       30.40R
LEADVILLE      MOCLDY    65  36  34 VRB5      30.59R
MONARCH PASS   CLOUDY    54  41  62 E15       30.87R
SALIDA         FAIR      74  47  38 SE12G25   30.49R
NIWOT RIDGE    NOT AVBL
SUNLIGHT       CLEAR     63  27  25 CALM      30.70S
WILKERSON PASS MOCLDY    54  41  62 SE6       30.76S
$$

COZ069>075-310300-
...SAN LUIS VALLEY/SANGRE DE CRISTO MOUNTAINS...

CITY           SKY/WX    TMP DP  RH WIND       PRES   REMARKS
ALAMOSA        MOCLDY    67  51  56 S8        30.43R
LA VETA PASS   MOCLDY    54  45  71 MISG      30.65R
SAGUACHE       MOCLDY    68  50  52 SE5       30.46R
$$

COZ035-036-038>040-310300-
...NORTHERN COLORADO FRONT RANGE...

CITY           SKY/WX    TMP DP  RH WIND       PRES   REMARKS
DENVER INTL AP PTCLDY    82  50  32 E10       30.26S
DMNS CITY PARK NOT AVBL
AURORA         PTCLDY    82  48  30 NE8       30.28S
FRONT RANGE AP PTCLDY    81  48  32 MISG      30.28R
ERIE MUNI ARPT FAIR      80  41  25 N3        30.25S
BOULDER MUN AP FAIR      81  45  28 NW5       30.27R HAZE
CENTENNIAL     PTCLDY    80  51  36 S8        30.30R
BROOMFIELD     PTCLDY    81  39  22 N7        30.30R
LOVELAND       CLEAR     82  46  28 E8        30.23R
LONGMONT       FAIR      83  47  27 N3        30.26S
$$

COZ041-046-047-076>085-087-088-310300-
...PIKES PEAK/PALMER DIVIDE AND SOUTHERN FOOTHILLS...

CITY           SKY/WX    TMP DP  RH WIND       PRES   REMARKS
COLO. SPRINGS  PTCLDY    71  54  54 SE5       30.39R
A. F. ACADEMY  CLEAR     71  52  50 SE12      30.39R
ELLICOTT       FAIR     N/A N/A N/A S8        30.36S
FALCON         FAIR      65  53  66 S6        30.44S
FORT CARSON    PTCLDY    72  56  56 E3        30.35R
LIMON          PTCLDY    70  57  63 SE9       30.32R
MONUMENT HILL  CLEAR     64  50  59 S18G24    30.41S
TRINIDAD       MOCLDY    75  57  53 W7        30.32R
$$

COZ042>045-048>051-090-091-310300-
...NORTHEAST COLORADO...

CITY           SKY/WX    TMP DP  RH WIND       PRES   REMARKS
GREELEY ARPT   CLEAR     81  50  34 E10       30.24S
AKRON          PTCLDY    68  58  70 S16       30.29R
BURLINGTON     MOCLDY    72  60  66 W17G29    30.33R
WRAY           FAIR      76  59  54 SW9       30.23R
STERLING       FAIR      73  59  60 S10       30.22R
HOLYOKE        NOT AVBL
FORT MORGAN    FAIR      72  57  58 E12G17    30.27R
$$

COZ086-089-092>099-310300-
...SOUTHEAST COLORADO...

CITY           SKY/WX    TMP DP  RH WIND       PRES   REMARKS
PUEBLO         MOCLDY    83  51  33 E12       30.25R
LA JUNTA       PTCLDY    80  59  48 SE13      30.25R
LAMAR          PTCLDY    77  62  59 S7        30.21R
SPRINGFIELD      N/A     72  62  71 S7        30.26S
$$




USA.gov is the U.S. government's official web portal to all federal, state and local government web resources and services.